Regional Weather Roundup
Issued by NWS

Home | Current Version | Previous Version | Text Only | Print | Product List | Glossary On
Versions: 1 2 3 4 5 6 7 8 9 10 11 12 13 14 15 16 17 18 19 20 21 22 23 24 25 26 27 28 29 30 31 32 33 34 35 36 37 38 39 40 41 42 43 44 45 46 47 48 49 50
511
ASUS43 KLMK 291110
RWRKY
KENTUCKY REGIONAL WEATHER ROUNDUP
NATIONAL WEATHER SERVICE LOUISVILLE KY
700 AM EDT FRI APR 29 2016

NOTE "FAIR" INDICATES FEW OR NO CLOUDS BELOW 12,000 FEET
WITH NO SIGNIFICANT WEATHER AND/OR OBSTRUCTIONS TO VISIBILITY.

KYZ001>023-026-027-061>063-070>075-291200-
WESTERN AND SOUTH CENTRAL KENTUCKY

CITY           SKY/WX    TMP DP  RH WIND       PRES   REMARKS
PADUCAH        CLEAR     54  50  86 E5        30.01F
HENDERSON      CLOUDY    55  48  76 CALM      30.05R
OWENSBORO      CLOUDY    57  52  84 N3        30.06R
HOPKINSVILLE   PTCLDY    56  52  85 N6        30.02R
BOWLING GREEN  CLOUDY    53  51  93 CALM      30.03R
GLASGOW        CLOUDY    50  50 100 CALM      30.03S
$$

KYZ024-025-028>034-038-045-046-053-291200-
NORTH CENTRAL KENTUCKY

CITY           SKY/WX    TMP DP  RH WIND       PRES   REMARKS
LOUISVILLE/SDF CLOUDY    56  49  77 NW5       30.04R
LOUISVILLE/LOU CLOUDY    54  48  80 NW5       30.05R
FORT KNOX      CLOUDY    52  50  92 NW6       30.03R
$$

KYZ035>037-039>044-047>052-055>060-089>105-291200-
NORTHEAST KENTUCKY

CITY           SKY/WX    TMP DP  RH WIND       PRES   REMARKS
LEXINGTON      PTCLDY    53  49  86 W3        30.03R
COVINGTON      CLOUDY    55  54  96 SW3       30.01R FOG
FRANKFORT      CLOUDY    52  48  86 NW5       30.02R
$$

KYZ054-064>069-076>088-106>120-291200-
SOUTHEAST KENTUCKY

CITY           SKY/WX    TMP DP  RH WIND       PRES   REMARKS
JACKSON        CLEAR     56  49  77 CALM      30.03R
LONDON         CLEAR     52  49  89 CALM      30.04R FOG
SOMERSET       PTCLDY    50  50 100 CALM      30.05R FOG
MIDDLESBORO    CLEAR     52  51  98 CALM      30.06R
MONTICELLO     CLOUDY    50  50 100 W5        30.06R
$$





USA.gov is the U.S. government's official web portal to all federal, state and local government web resources and services.